Time,TemperatureF,DewpointF,PressureIn,WindDirection,WindDirectionDegrees,WindSpeedMPH,WindSpeedGustMPH,Humidity,HourlyPrecipIn,Conditions,Clouds,dailyrainin,SoftwareType,DateUTC
2013-05-06 00:01:00,56.1,47.6,30.10,SSE,153,0.0,0.0,73,0.00,,,0.00,Wunderground v.1.15,2013-05-06 05:01:00,
2013-05-06 00:10:00,55.7,47.5,30.11,SSE,153,0.0,0.0,74,0.00,,,0.00,Wunderground v.1.15,2013-05-06 05:10:00,
2013-05-06 00:20:00,55.4,47.6,30.11,SSE,153,0.0,0.0,75,0.00,,,0.00,Wunderground v.1.15,2013-05-06 05:20:00,
2013-05-06 00:25:00,55.3,47.5,30.11,SSE,153,0.0,0.0,75,0.00,,,0.00,Wunderground v.1.15,2013-05-06 05:25:00,
2013-05-06 00:30:00,55.1,47.7,30.11,SSE,153,0.0,0.0,76,0.00,,,0.00,Wunderground v.1.15,2013-05-06 05:30:00,
2013-05-06 00:40:00,54.9,47.5,30.11,SSE,153,0.0,0.0,76,0.00,,,0.00,Wunderground v.1.15,2013-05-06 05:40:00,
2013-05-06 00:50:00,54.7,48.0,30.11,SSE,153,0.0,0.0,78,0.00,,,0.00,Wunderground v.1.15,2013-05-06 05:50:00,
2013-05-06 01:01:00,54.4,47.3,30.11,SSE,153,0.0,0.0,77,0.00,,,0.00,Wunderground v.1.15,2013-05-06 06:01:00,
2013-05-06 01:10:00,54.3,47.6,30.11,SSE,153,0.0,0.0,78,0.00,,,0.00,Wunderground v.1.15,2013-05-06 06:10:00,
2013-05-06 01:15:00,54.2,47.5,30.10,SSE,153,0.0,0.0,78,0.00,,,0.00,Wunderground v.1.15,2013-05-06 06:15:00,
2013-05-06 01:25:00,54.0,47.6,30.11,SSE,153,0.0,0.0,79,0.00,,,0.00,Wunderground v.1.15,2013-05-06 06:25:00,
2013-05-06 01:35:00,53.8,47.4,30.11,SSE,153,0.0,0.0,79,0.00,,,0.00,Wunderground v.1.15,2013-05-06 06:35:00,
2013-05-06 01:40:00,53.6,47.2,30.11,SSE,153,0.0,0.0,79,0.00,,,0.00,Wunderground v.1.15,2013-05-06 06:40:00,
2013-05-06 01:50:00,53.4,47.7,30.11,SSE,153,0.0,0.0,81,0.00,,,0.00,Wunderground v.1.15,2013-05-06 06:50:00,
2013-05-06 02:00:00,53.1,47.4,30.11,SSE,153,0.0,0.0,81,0.00,,,0.00,Wunderground v.1.15,2013-05-06 07:00:00,
2013-05-06 02:10:00,52.8,47.5,30.10,SSE,153,0.0,0.0,82,0.00,,,0.00,Wunderground v.1.15,2013-05-06 07:10:00,
2013-05-06 02:15:00,52.7,47.4,30.10,SSE,153,0.0,0.0,82,0.00,,,0.00,Wunderground v.1.15,2013-05-06 07:15:00,
2013-05-06 02:25:00,52.6,47.6,30.10,SSE,153,0.0,0.0,83,0.00,,,0.00,Wunderground v.1.15,2013-05-06 07:25:00,
2013-05-06 02:35:00,52.4,47.4,30.10,SSE,153,0.0,0.0,83,0.00,,,0.00,Wunderground v.1.15,2013-05-06 07:35:00,
2013-05-06 02:45:00,52.3,47.3,30.10,SSE,153,0.0,0.0,83,0.00,,,0.00,Wunderground v.1.15,2013-05-06 07:45:00,
2013-05-06 02:55:00,52.4,47.7,30.10,SSE,153,0.0,0.0,84,0.00,,,0.00,Wunderground v.1.15,2013-05-06 07:55:00,
2013-05-06 03:00:00,52.4,47.7,30.10,SSE,153,0.0,0.0,84,0.00,,,0.00,Wunderground v.1.15,2013-05-06 08:00:00,
2013-05-06 03:10:00,52.4,47.7,30.10,SSE,153,0.0,0.0,84,0.00,,,0.00,Wunderground v.1.15,2013-05-06 08:10:00,
2013-05-06 03:15:00,52.4,47.7,30.10,SSE,153,0.0,0.0,84,0.00,,,0.00,Wunderground v.1.15,2013-05-06 08:15:00,
2013-05-06 03:25:00,52.6,47.9,30.09,SSE,153,0.0,0.0,84,0.00,,,0.00,Wunderground v.1.15,2013-05-06 08:25:00,
2013-05-06 03:35:00,52.7,47.7,30.09,SSE,153,0.0,0.0,83,0.00,,,0.00,Wunderground v.1.15,2013-05-06 08:35:00,
2013-05-06 03:45:00,52.5,47.5,30.09,SSE,153,0.0,0.0,83,0.00,,,0.00,Wunderground v.1.15,2013-05-06 08:45:00,
2013-05-06 03:55:00,52.3,47.6,30.09,SSE,153,0.0,0.0,84,0.00,,,0.00,Wunderground v.1.15,2013-05-06 08:55:00,
2013-05-06 04:00:00,52.4,47.7,30.09,SSE,153,0.0,0.0,84,0.00,,,0.00,Wunderground v.1.15,2013-05-06 09:00:00,
2013-05-06 04:10:00,52.3,47.6,30.09,SSE,153,0.0,0.0,84,0.00,,,0.00,Wunderground v.1.15,2013-05-06 09:10:00,
2013-05-06 04:15:00,52.1,47.4,30.09,SSE,153,0.0,0.0,84,0.00,,,0.00,Wunderground v.1.15,2013-05-06 09:15:00,
2013-05-06 04:20:00,51.9,47.2,30.09,SSE,153,0.0,0.0,84,0.00,,,0.00,Wunderground v.1.15,2013-05-06 09:20:00,
2013-05-06 04:30:00,51.6,46.9,30.09,SSE,153,0.0,0.0,84,0.00,,,0.00,Wunderground v.1.15,2013-05-06 09:30:00,
2013-05-06 04:40:00,51.3,46.9,30.09,SSE,153,0.0,0.0,85,0.00,,,0.00,Wunderground v.1.15,2013-05-06 09:40:00,
2013-05-06 04:50:00,51.1,47.1,30.09,SSE,153,0.0,0.0,86,0.00,,,0.00,Wunderground v.1.15,2013-05-06 09:50:00,
2013-05-06 04:55:00,50.9,46.9,30.09,SSE,153,0.0,0.0,86,0.00,,,0.00,Wunderground v.1.15,2013-05-06 09:55:00,
2013-05-06 05:01:00,50.8,46.8,30.09,SSE,153,0.0,0.0,86,0.00,,,0.00,Wunderground v.1.15,2013-05-06 10:01:00,
2013-05-06 05:10:00,50.6,46.9,30.10,SSE,153,0.0,0.0,87,0.00,,,0.00,Wunderground v.1.15,2013-05-06 10:10:00,
2013-05-06 05:20:00,50.8,47.4,30.10,SSE,153,0.0,0.0,88,0.00,,,0.00,Wunderground v.1.15,2013-05-06 10:20:00,
2013-05-06 05:30:00,51.1,47.7,30.10,SSE,153,0.0,0.0,88,0.00,,,0.00,Wunderground v.1.15,2013-05-06 10:30:00,
2013-05-06 05:40:00,51.3,47.6,30.10,SSE,153,0.0,0.0,87,0.00,,,0.00,Wunderground v.1.15,2013-05-06 10:40:00,
2013-05-06 05:50:00,51.3,47.6,30.10,SSE,153,0.0,0.0,87,0.00,,,0.00,Wunderground v.1.15,2013-05-06 10:50:00,
2013-05-06 06:00:00,51.3,47.6,30.11,SSE,153,0.0,0.0,87,0.00,,,0.00,Wunderground v.1.15,2013-05-06 11:00:00,
2013-05-06 06:10:00,51.3,47.6,30.11,SSE,153,0.0,0.0,87,0.00,,,0.00,Wunderground v.1.15,2013-05-06 11:10:00,
2013-05-06 06:20:00,51.2,47.5,30.11,SSE,153,0.0,0.0,87,0.00,,,0.00,Wunderground v.1.15,2013-05-06 11:20:00,
2013-05-06 06:30:00,51.0,47.3,30.11,SSE,153,0.0,0.0,87,0.00,,,0.00,Wunderground v.1.15,2013-05-06 11:30:00,
2013-05-06 06:35:00,50.8,47.1,30.11,SSE,153,0.0,0.0,87,0.00,,,0.00,Wunderground v.1.15,2013-05-06 11:35:00,
2013-05-06 06:45:00,50.5,46.8,30.11,SSE,153,0.0,0.0,87,0.00,,,0.00,Wunderground v.1.15,2013-05-06 11:45:00,
2013-05-06 06:55:00,50.3,46.9,30.12,SSE,153,0.0,0.0,88,0.00,,,0.00,Wunderground v.1.15,2013-05-06 11:55:00,
2013-05-06 07:00:00,50.2,46.8,30.12,SSE,153,0.0,0.0,88,0.00,,,0.00,Wunderground v.1.15,2013-05-06 12:00:00,
2013-05-06 07:10:00,50.1,47.0,30.12,SSE,153,0.0,0.0,89,0.00,,,0.00,Wunderground v.1.15,2013-05-06 12:10:00,
2013-05-06 07:15:00,50.1,47.0,30.12,SSE,153,0.0,0.0,89,0.00,,,0.00,Wunderground v.1.15,2013-05-06 12:15:00,
2013-05-06 07:25:00,50.3,47.5,30.12,SSE,153,0.0,0.0,90,0.00,,,0.00,Wunderground v.1.15,2013-05-06 12:25:00,
2013-05-06 07:35:00,51.1,48.6,30.12,SSE,153,0.0,0.0,91,0.00,,,0.00,Wunderground v.1.15,2013-05-06 12:35:00,
2013-05-06 07:45:00,51.8,48.7,30.12,SSE,153,0.0,0.0,89,0.00,,,0.00,Wunderground v.1.15,2013-05-06 12:45:00,
2013-05-06 07:55:00,52.3,49.2,30.12,SSE,153,0.0,0.0,89,0.00,,,0.00,Wunderground v.1.15,2013-05-06 12:55:00,
2013-05-06 08:00:00,52.8,49.3,30.12,SSE,153,0.0,0.0,88,0.00,,,0.00,Wunderground v.1.15,2013-05-06 13:00:00,
2013-05-06 08:10:00,53.8,49.7,30.13,SSE,153,0.0,0.0,86,0.00,,,0.00,Wunderground v.1.15,2013-05-06 13:10:00,
2013-05-06 08:15:00,54.3,50.2,30.13,SSE,153,0.0,0.0,86,0.00,,,0.00,Wunderground v.1.15,2013-05-06 13:15:00,
2013-05-06 08:25:00,55.5,50.1,30.13,SSE,153,0.0,0.0,82,0.00,,,0.00,Wunderground v.1.15,2013-05-06 13:25:00,
2013-05-06 08:35:00,56.9,50.1,30.13,WSW,238,0.0,0.0,78,0.00,,,0.00,Wunderground v.1.15,2013-05-06 13:35:00,
2013-05-06 08:45:00,58.2,50.7,30.14,WSW,246,0.0,2.0,76,0.00,,,0.00,Wunderground v.1.15,2013-05-06 13:45:00,
2013-05-06 08:55:00,59.5,51.2,30.14,WSW,249,0.0,0.0,74,0.00,,,0.00,Wunderground v.1.15,2013-05-06 13:55:00,
2013-05-06 09:00:00,60.1,51.4,30.14,WSW,249,0.0,0.0,73,0.00,,,0.00,Wunderground v.1.15,2013-05-06 14:00:00,
2013-05-06 09:10:00,61.8,51.9,30.13,WSW,249,0.0,1.0,70,0.00,,,0.00,Wunderground v.1.15,2013-05-06 14:10:00,
2013-05-06 09:20:00,62.7,51.6,30.13,WSW,252,0.0,1.0,67,0.00,,,0.00,Wunderground v.1.15,2013-05-06 14:20:00,
2013-05-06 09:30:00,64.0,51.1,30.13,WSW,251,0.0,1.0,63,0.00,,,0.00,Wunderground v.1.15,2013-05-06 14:30:00,
2013-05-06 09:40:00,64.4,51.1,30.13,WNW,286,0.0,1.0,62,0.00,,,0.00,Wunderground v.1.15,2013-05-06 14:40:00,
2013-05-06 09:50:00,65.1,51.8,30.13,NW,311,0.0,1.0,62,0.00,,,0.00,Wunderground v.1.15,2013-05-06 14:50:00,
2013-05-06 10:00:00,66.6,51.8,30.13,NW,311,0.0,0.0,59,0.00,,,0.00,Wunderground v.1.15,2013-05-06 15:00:00,
2013-05-06 10:10:00,66.7,51.9,30.13,NW,323,0.0,4.0,59,0.00,,,0.00,Wunderground v.1.15,2013-05-06 15:10:00,
2013-05-06 10:15:00,66.8,51.5,30.14,WNW,300,0.0,4.0,58,0.00,,,0.00,Wunderground v.1.15,2013-05-06 15:15:00,
2013-05-06 10:25:00,67.5,51.7,30.14,WNW,287,0.0,4.0,57,0.00,,,0.00,Wunderground v.1.15,2013-05-06 15:25:00,
2013-05-06 10:35:00,67.4,52.1,30.14,WNW,285,1.0,4.0,58,0.00,,,0.00,Wunderground v.1.15,2013-05-06 15:35:00,
2013-05-06 10:45:00,67.7,51.9,30.14,WNW,302,1.0,4.0,57,0.00,,,0.00,Wunderground v.1.15,2013-05-06 15:45:00,
2013-05-06 10:55:00,68.1,52.3,30.14,WNW,299,0.0,4.0,57,0.00,,,0.00,Wunderground v.1.15,2013-05-06 15:55:00,
2013-05-06 11:00:00,68.6,53.2,30.14,WNW,297,0.0,1.0,58,0.00,,,0.00,Wunderground v.1.15,2013-05-06 16:00:00,
2013-05-06 11:10:00,68.9,52.6,30.14,WNW,301,1.0,1.0,56,0.00,,,0.00,Wunderground v.1.15,2013-05-06 16:10:00,
2013-05-06 11:15:00,68.8,52.5,30.14,WNW,301,0.0,5.0,56,0.00,,,0.00,Wunderground v.1.15,2013-05-06 16:15:00,
2013-05-06 11:25:00,69.5,53.6,30.14,WNW,293,0.0,5.0,57,0.00,,,0.00,Wunderground v.1.15,2013-05-06 16:25:00,
2013-05-06 11:35:00,70.4,53.0,30.14,NNE,23,0.0,5.0,54,0.00,,,0.00,Wunderground v.1.15,2013-05-06 16:35:00,
2013-05-06 11:45:00,70.9,52.9,30.13,NW,309,1.0,5.0,53,0.00,,,0.00,Wunderground v.1.15,2013-05-06 16:45:00,
2013-05-06 11:55:00,70.9,52.9,30.12,WNW,297,0.0,5.0,53,0.00,,,0.00,Wunderground v.1.15,2013-05-06 16:55:00,
2013-05-06 12:00:00,71.7,54.2,30.12,WNW,297,0.0,0.0,54,0.00,,,0.00,Wunderground v.1.15,2013-05-06 17:00:00,
2013-05-06 12:10:00,71.9,52.8,30.12,WNW,282,1.0,1.0,51,0.00,,,0.00,Wunderground v.1.15,2013-05-06 17:10:00,
2013-05-06 12:15:00,72.4,52.2,30.12,East,81,0.0,6.0,49,0.00,,,0.00,Wunderground v.1.15,2013-05-06 17:15:00,
2013-05-06 12:25:00,72.8,53.6,30.11,West,277,0.0,6.0,51,0.00,,,0.00,Wunderground v.1.15,2013-05-06 17:25:00,
2013-05-06 12:35:00,73.4,53.1,30.10,WNW,302,1.0,6.0,49,0.00,,,0.00,Wunderground v.1.15,2013-05-06 17:35:00,
2013-05-06 12:45:00,73.7,53.9,30.10,East,90,0.0,6.0,50,0.00,,,0.00,Wunderground v.1.15,2013-05-06 17:45:00,
2013-05-06 12:55:00,74.3,53.9,30.09,WNW,284,0.0,6.0,49,0.00,,,0.00,Wunderground v.1.15,2013-05-06 17:55:00,
2013-05-06 13:00:00,74.5,53.5,30.09,WNW,286,1.0,3.0,48,0.00,,,0.00,Wunderground v.1.15,2013-05-06 18:00:00,
2013-05-06 13:10:00,74.4,53.4,30.08,WNW,294,1.0,7.0,48,0.00,,,0.00,Wunderground v.1.15,2013-05-06 18:10:00,
2013-05-06 13:15:00,74.6,53.0,30.08,ESE,117,0.0,7.0,47,0.00,,,0.00,Wunderground v.1.15,2013-05-06 18:15:00,
2013-05-06 13:25:00,75.0,54.0,30.08,NW,313,0.0,7.0,48,0.00,,,0.00,Wunderground v.1.15,2013-05-06 18:25:00,
2013-05-06 13:30:00,75.3,53.7,30.07,NW,326,0.0,7.0,47,0.00,,,0.00,Wunderground v.1.15,2013-05-06 18:30:00,
2013-05-06 13:40:00,75.9,53.6,30.08,NW,317,0.0,7.0,46,0.00,,,0.00,Wunderground v.1.15,2013-05-06 18:40:00,
2013-05-06 13:45:00,76.2,54.5,30.07,ESE,115,0.0,7.0,47,0.00,,,0.00,Wunderground v.1.15,2013-05-06 18:45:00,
2013-05-06 13:55:00,76.8,54.5,30.07,NNE,16,0.0,7.0,46,0.00,,,0.00,Wunderground v.1.15,2013-05-06 18:55:00,
2013-05-06 14:00:00,76.8,53.2,30.07,SE,128,0.0,2.0,44,0.00,,,0.00,Wunderground v.1.15,2013-05-06 19:00:00,
2013-05-06 14:10:00,76.7,52.5,30.08,SE,125,0.0,6.0,43,0.00,,,0.00,Wunderground v.1.15,2013-05-06 19:10:00,
2013-05-06 14:15:00,76.7,53.1,30.07,NW,312,0.0,6.0,44,0.00,,,0.00,Wunderground v.1.15,2013-05-06 19:15:00,
2013-05-06 14:25:00,77.3,53.7,30.06,WNW,290,0.0,6.0,44,0.00,,,0.00,Wunderground v.1.15,2013-05-06 19:25:00,
2013-05-06 14:35:00,77.3,52.4,30.06,NNW,339,1.0,6.0,42,0.00,,,0.00,Wunderground v.1.15,2013-05-06 19:35:00,
2013-05-06 14:45:00,77.4,54.4,30.05,NW,321,0.0,6.0,45,0.00,,,0.00,Wunderground v.1.15,2013-05-06 19:45:00,
2013-05-06 14:55:00,77.7,53.4,30.04,NNW,329,0.0,6.0,43,0.00,,,0.00,Wunderground v.1.15,2013-05-06 19:55:00,
2013-05-06 15:00:00,77.5,53.2,30.04,ENE,77,1.0,1.0,43,0.00,,,0.00,Wunderground v.1.15,2013-05-06 20:00:00,
2013-05-06 15:10:00,77.5,53.2,30.04,NNE,19,0.0,6.0,43,0.00,,,0.00,Wunderground v.1.15,2013-05-06 20:10:00,
2013-05-06 15:15:00,77.3,53.1,30.04,NNE,17,0.0,6.0,43,0.00,,,0.00,Wunderground v.1.15,2013-05-06 20:15:00,
2013-05-06 15:25:00,76.8,52.0,30.03,WNW,290,1.0,6.0,42,0.00,,,0.00,Wunderground v.1.15,2013-05-06 20:25:00,
2013-05-06 15:35:00,76.3,52.2,30.03,WNW,286,1.0,6.0,43,0.00,,,0.00,Wunderground v.1.15,2013-05-06 20:35:00,
2013-05-06 15:45:00,76.6,53.1,30.03,NW,305,0.0,6.0,44,0.00,,,0.00,Wunderground v.1.15,2013-05-06 20:45:00,
2013-05-06 15:55:00,77.1,52.9,30.02,SSE,161,0.0,6.0,43,0.00,,,0.00,Wunderground v.1.15,2013-05-06 20:55:00,
2013-05-06 16:00:00,77.2,53.0,30.02,SSE,161,0.0,1.0,43,0.00,,,0.00,Wunderground v.1.15,2013-05-06 21:00:00,
2013-05-06 16:10:00,77.3,53.1,30.02,WNW,302,0.0,8.0,43,0.00,,,0.00,Wunderground v.1.15,2013-05-06 21:10:00,
2013-05-06 16:15:00,77.2,52.3,30.01,NW,306,0.0,8.0,42,0.00,,,0.00,Wunderground v.1.15,2013-05-06 21:15:00,
2013-05-06 16:25:00,77.1,51.6,30.01,WNW,300,0.0,8.0,41,0.00,,,0.00,Wunderground v.1.15,2013-05-06 21:25:00,
2013-05-06 16:35:00,77.0,52.1,30.01,WNW,290,0.0,8.0,42,0.00,,,0.00,Wunderground v.1.15,2013-05-06 21:35:00,
2013-05-06 16:45:00,76.8,52.0,30.01,ENE,77,0.0,8.0,42,0.00,,,0.00,Wunderground v.1.15,2013-05-06 21:45:00,
2013-05-06 16:55:00,76.7,52.5,30.01,WNW,301,0.0,8.0,43,0.00,,,0.00,Wunderground v.1.15,2013-05-06 21:55:00,
2013-05-06 17:00:00,76.6,52.4,30.01,WNW,301,0.0,0.0,43,0.00,,,0.00,Wunderground v.1.15,2013-05-06 22:00:00,
2013-05-06 17:10:00,76.6,52.4,30.01,WNW,301,0.0,5.0,43,0.00,,,0.00,Wunderground v.1.15,2013-05-06 22:10:00,
2013-05-06 17:15:00,76.5,51.0,30.01,WNW,302,0.0,5.0,41,0.00,,,0.00,Wunderground v.1.15,2013-05-06 22:15:00,
2013-05-06 17:20:00,76.6,52.4,30.01,WNW,302,0.0,5.0,43,0.00,,,0.00,Wunderground v.1.15,2013-05-06 22:20:00,
2013-05-06 17:30:00,76.2,52.7,30.01,WNW,301,0.0,5.0,44,0.00,,,0.00,Wunderground v.1.15,2013-05-06 22:30:00,
2013-05-06 17:40:00,76.3,51.5,30.01,WNW,301,0.0,5.0,42,0.00,,,0.00,Wunderground v.1.15,2013-05-06 22:40:00,
2013-05-06 17:50:00,76.4,54.1,30.01,WNW,301,0.0,5.0,46,0.00,,,0.00,Wunderground v.1.15,2013-05-06 22:50:00,
2013-05-06 17:55:00,76.3,52.8,30.01,WNW,302,0.0,5.0,44,0.00,,,0.00,Wunderground v.1.15,2013-05-06 22:55:00,
2013-05-06 18:01:00,76.2,52.7,30.01,WNW,302,0.0,0.0,44,0.00,,,0.00,Wunderground v.1.15,2013-05-06 23:01:00,
2013-05-06 18:10:00,76.1,53.2,30.01,WNW,302,0.0,4.0,45,0.00,,,0.00,Wunderground v.1.15,2013-05-06 23:10:00,
2013-05-06 18:20:00,75.9,53.0,30.01,WNW,302,0.0,4.0,45,0.00,,,0.00,Wunderground v.1.15,2013-05-06 23:20:00,
2013-05-06 18:30:00,75.8,52.9,30.01,WNW,302,0.0,4.0,45,0.00,,,0.00,Wunderground v.1.15,2013-05-06 23:30:00,
2013-05-06 18:40:00,75.7,54.0,30.01,WNW,302,0.0,4.0,47,0.00,,,0.00,Wunderground v.1.15,2013-05-06 23:40:00,
2013-05-06 18:50:00,75.7,55.7,30.01,WNW,302,0.0,4.0,50,0.00,,,0.00,Wunderground v.1.15,2013-05-06 23:50:00,
2013-05-06 19:01:00,75.4,53.8,30.01,WNW,302,0.0,0.0,47,0.00,,,0.00,Wunderground v.1.15,2013-05-07 00:01:00,
2013-05-06 19:10:00,75.1,53.5,30.01,WNW,302,0.0,2.0,47,0.00,,,0.00,Wunderground v.1.15,2013-05-07 00:10:00,
2013-05-06 19:20:00,74.9,54.4,30.01,WNW,302,0.0,2.0,49,0.00,,,0.00,Wunderground v.1.15,2013-05-07 00:20:00,
2013-05-06 19:30:00,74.6,54.7,30.01,WNW,302,0.0,2.0,50,0.00,,,0.00,Wunderground v.1.15,2013-05-07 00:30:00,
2013-05-06 19:40:00,74.2,54.4,30.01,WNW,302,0.0,2.0,50,0.00,,,0.00,Wunderground v.1.15,2013-05-07 00:40:00,
2013-05-06 19:50:00,73.8,53.4,30.01,WNW,302,0.0,2.0,49,0.00,,,0.00,Wunderground v.1.15,2013-05-07 00:50:00,
2013-05-06 20:00:00,73.6,53.8,30.01,WNW,302,0.0,0.0,50,0.00,,,0.00,Wunderground v.1.15,2013-05-07 01:00:00,
2013-05-06 20:10:00,73.2,54.0,30.01,WNW,302,0.0,1.0,51,0.00,,,0.00,Wunderground v.1.15,2013-05-07 01:10:00,
2013-05-06 20:15:00,73.0,53.8,30.01,WNW,302,0.0,1.0,51,0.00,,,0.00,Wunderground v.1.15,2013-05-07 01:15:00,
2013-05-06 20:25:00,72.5,54.4,30.01,WNW,302,0.0,1.0,53,0.00,,,0.00,Wunderground v.1.15,2013-05-07 01:25:00,
2013-05-06 20:35:00,71.9,54.3,30.01,WNW,302,0.0,1.0,54,0.00,,,0.00,Wunderground v.1.15,2013-05-07 01:35:00,
2013-05-06 20:45:00,71.2,54.7,30.01,WNW,302,0.0,1.0,56,0.00,,,0.00,Wunderground v.1.15,2013-05-07 01:45:00,
2013-05-06 20:55:00,70.6,55.1,30.01,WNW,302,0.0,1.0,58,0.00,,,0.00,Wunderground v.1.15,2013-05-07 01:55:00,
2013-05-06 21:00:00,70.3,55.3,30.02,WNW,302,0.0,0.0,59,0.00,,,0.00,Wunderground v.1.15,2013-05-07 02:00:00,
2013-05-06 21:10:00,69.7,54.7,30.02,WNW,302,0.0,0.0,59,0.00,,,0.00,Wunderground v.1.15,2013-05-07 02:10:00,
2013-05-06 21:15:00,69.4,54.9,30.02,WNW,302,0.0,0.0,60,0.00,,,0.00,Wunderground v.1.15,2013-05-07 02:15:00,
2013-05-06 21:25:00,69.0,55.0,30.02,WNW,302,0.0,0.0,61,0.00,,,0.00,Wunderground v.1.15,2013-05-07 02:25:00,
2013-05-06 21:35:00,68.7,55.2,30.02,WNW,302,0.0,0.0,62,0.00,,,0.00,Wunderground v.1.15,2013-05-07 02:35:00,
2013-05-06 21:45:00,68.4,55.3,30.02,WNW,302,0.0,0.0,63,0.00,,,0.00,Wunderground v.1.15,2013-05-07 02:45:00,
2013-05-06 21:55:00,68.1,55.5,30.03,WNW,302,0.0,0.0,64,0.00,,,0.00,Wunderground v.1.15,2013-05-07 02:55:00,
2013-05-06 22:00:00,67.9,55.3,30.03,WNW,302,0.0,0.0,64,0.00,,,0.00,Wunderground v.1.15,2013-05-07 03:00:00,
2013-05-06 22:10:00,67.6,55.8,30.03,WNW,302,0.0,0.0,66,0.00,,,0.00,Wunderground v.1.15,2013-05-07 03:10:00,
2013-05-06 22:15:00,67.4,55.6,30.03,WNW,302,0.0,0.0,66,0.00,,,0.00,Wunderground v.1.15,2013-05-07 03:15:00,
2013-05-06 22:25:00,67.1,55.8,30.03,WNW,302,0.0,0.0,67,0.00,,,0.00,Wunderground v.1.15,2013-05-07 03:25:00,
2013-05-06 22:35:00,66.8,55.5,30.03,WNW,302,0.0,0.0,67,0.00,,,0.00,Wunderground v.1.15,2013-05-07 03:35:00,
2013-05-06 22:45:00,66.6,55.7,30.03,WNW,302,0.0,0.0,68,0.00,,,0.00,Wunderground v.1.15,2013-05-07 03:45:00,
2013-05-06 22:55:00,66.3,55.8,30.03,WNW,302,0.0,0.0,69,0.00,,,0.00,Wunderground v.1.15,2013-05-07 03:55:00,
2013-05-06 23:01:00,66.2,55.7,30.03,WNW,302,0.0,0.0,69,0.00,,,0.00,Wunderground v.1.15,2013-05-07 04:01:00,
2013-05-06 23:05:00,66.1,55.6,30.03,WNW,302,0.0,0.0,69,0.00,,,0.00,Wunderground v.1.15,2013-05-07 04:05:00,
2013-05-06 23:10:00,66.0,55.5,30.03,WNW,302,0.0,0.0,69,0.00,,,0.00,Wunderground v.1.15,2013-05-07 04:10:00,
2013-05-06 23:15:00,65.9,55.8,30.03,WNW,302,0.0,0.0,70,0.00,,,0.00,Wunderground v.1.15,2013-05-07 04:15:00,
2013-05-06 23:20:00,65.7,55.6,30.03,WNW,302,0.0,0.0,70,0.00,,,0.00,Wunderground v.1.15,2013-05-07 04:20:00,
2013-05-06 23:30:00,65.5,55.8,30.03,WNW,302,0.0,0.0,71,0.00,,,0.00,Wunderground v.1.15,2013-05-07 04:30:00,
2013-05-06 23:35:00,65.4,55.7,30.03,WNW,302,0.0,0.0,71,0.00,,,0.00,Wunderground v.1.15,2013-05-07 04:35:00,
2013-05-06 23:40:00,65.2,55.9,30.03,WNW,302,0.0,0.0,72,0.00,,,0.00,Wunderground v.1.15,2013-05-07 04:40:00,
2013-05-06 23:50:00,64.9,55.7,30.03,WNW,302,0.0,0.0,72,0.00,,,0.00,Wunderground v.1.15,2013-05-07 04:50:00,